Time,TemperatureF,DewpointF,PressureIn,WindDirection,WindDirectionDegrees,WindSpeedMPH,WindSpeedGustMPH,Humidity,HourlyPrecipIn,Conditions,Clouds,dailyrainin,SoftwareType,DateUTC
2013-03-06 00:00:00,46.1,28.5,30.24,South,180,1.0,1.0,50,0.00,,,0.00,WeatherCatV1.02B3,2013-03-06 06:00:00,
2013-03-06 00:05:00,46.1,28.5,30.24,SE,138,8.0,8.0,50,0.00,,,0.00,WeatherCatV1.02B3,2013-03-06 06:05:00,
2013-03-06 00:10:00,46.0,27.9,30.24,East,98,2.0,3.0,49,0.00,,,0.00,WeatherCatV1.02B3,2013-03-06 06:10:00,
2013-03-06 00:15:00,45.9,28.3,30.24,NE,38,1.0,8.0,50,0.00,,,0.00,WeatherCatV1.02B3,2013-03-06 06:15:00,
2013-03-06 00:20:00,45.8,27.7,30.24,SE,141,0.0,2.0,49,0.00,,,0.00,WeatherCatV1.02B3,2013-03-06 06:20:00,
2013-03-06 00:25:00,45.6,27.6,30.24,East,94,0.0,6.0,49,0.00,,,0.00,WeatherCatV1.02B3,2013-03-06 06:25:00,
2013-03-06 00:30:00,45.5,28.0,30.24,ENE,66,0.0,2.0,50,0.00,,,0.00,WeatherCatV1.02B3,2013-03-06 06:30:00,
2013-03-06 00:35:00,45.4,27.4,30.24,East,90,0.0,4.0,49,0.00,,,0.00,WeatherCatV1.02B3,2013-03-06 06:35:00,
2013-03-06 00:40:00,45.2,27.2,30.24,NE,42,0.0,4.0,49,0.00,,,0.00,WeatherCatV1.02B3,2013-03-06 06:40:00,
2013-03-06 00:45:00,45.1,27.1,30.25,East,94,2.0,4.0,49,0.00,,,0.00,WeatherCatV1.02B3,2013-03-06 06:45:00,
2013-03-06 00:50:00,45.0,26.5,30.25,SE,146,0.0,5.0,48,0.00,,,0.00,WeatherCatV1.02B3,2013-03-06 06:50:00,
2013-03-06 00:55:00,45.0,26.5,30.25,East,82,1.0,3.0,48,0.00,,,0.00,WeatherCatV1.02B3,2013-03-06 06:55:00,
2013-03-06 01:00:00,44.9,26.4,30.25,South,183,2.0,2.0,48,0.00,,,0.00,WeatherCatV1.02B3,2013-03-06 07:00:00,
2013-03-06 01:05:00,44.9,25.9,30.25,WSW,254,1.0,7.0,47,0.00,,,0.00,WeatherCatV1.02B3,2013-03-06 07:05:00,
2013-03-06 01:10:00,44.8,26.3,30.25,NE,40,0.0,5.0,48,0.00,,,0.00,WeatherCatV1.02B3,2013-03-06 07:10:00,
2013-03-06 01:15:00,44.6,26.6,30.25,South,187,2.0,4.0,49,0.00,,,0.00,WeatherCatV1.02B3,2013-03-06 07:15:00,
2013-03-06 01:20:00,44.5,26.5,30.25,WNW,293,0.0,2.0,49,0.00,,,0.00,WeatherCatV1.02B3,2013-03-06 07:20:00,
2013-03-06 01:25:00,44.4,26.5,30.25,NE,41,0.0,2.0,49,0.00,,,0.00,WeatherCatV1.02B3,2013-03-06 07:25:00,
2013-03-06 01:30:00,44.3,25.9,30.25,ESE,109,1.0,4.0,48,0.00,,,0.00,WeatherCatV1.02B3,2013-03-06 07:30:00,
2013-03-06 01:35:00,44.2,25.8,30.25,NE,39,2.0,6.0,48,0.00,,,0.00,WeatherCatV1.02B3,2013-03-06 07:35:00,
2013-03-06 01:40:00,44.3,25.9,30.25,ESE,106,0.0,4.0,48,0.00,,,0.00,WeatherCatV1.02B3,2013-03-06 07:40:00,
2013-03-06 01:45:00,44.2,26.3,30.25,ENE,72,2.0,6.0,49,0.00,,,0.00,WeatherCatV1.02B3,2013-03-06 07:45:00,
2013-03-06 01:50:00,44.2,26.3,30.25,East,80,2.0,6.0,49,0.00,,,0.00,WeatherCatV1.02B3,2013-03-06 07:50:00,
2013-03-06 01:55:00,44.1,26.2,30.25,NE,55,0.0,5.0,49,0.00,,,0.00,WeatherCatV1.02B3,2013-03-06 07:55:00,
2013-03-06 02:00:00,44.1,26.2,30.25,SSE,148,0.0,4.0,49,0.00,,,0.00,WeatherCatV1.02B3,2013-03-06 08:00:00,
2013-03-06 02:05:00,44.1,26.2,30.25,ENE,63,2.0,6.0,49,0.00,,,0.00,WeatherCatV1.02B3,2013-03-06 08:05:00,
2013-03-06 02:10:00,43.9,26.5,30.25,SE,134,1.0,5.0,50,0.00,,,0.00,WeatherCatV1.02B3,2013-03-06 08:10:00,
2013-03-06 02:15:00,43.8,26.4,30.25,East,93,0.0,2.0,50,0.00,,,0.00,WeatherCatV1.02B3,2013-03-06 08:15:00,
2013-03-06 02:20:00,43.7,26.3,30.25,ENE,67,3.0,5.0,50,0.00,,,0.00,WeatherCatV1.02B3,2013-03-06 08:20:00,
2013-03-06 02:25:00,43.7,25.8,30.25,NE,49,0.0,5.0,49,0.00,,,0.00,WeatherCatV1.02B3,2013-03-06 08:25:00,
2013-03-06 02:30:00,43.6,25.7,30.25,East,88,1.0,3.0,49,0.00,,,0.00,WeatherCatV1.02B3,2013-03-06 08:30:00,
2013-03-06 02:35:00,43.5,26.1,30.25,NNE,30,1.0,2.0,50,0.00,,,0.00,WeatherCatV1.02B3,2013-03-06 08:35:00,
2013-03-06 02:40:00,43.3,25.9,30.25,ESE,113,0.0,4.0,50,0.00,,,0.00,WeatherCatV1.02B3,2013-03-06 08:40:00,
2013-03-06 02:45:00,43.2,26.3,30.25,ESE,123,2.0,2.0,51,0.00,,,0.00,WeatherCatV1.02B3,2013-03-06 08:45:00,
2013-03-06 02:50:00,43.1,26.7,30.25,East,94,1.0,1.0,52,0.00,,,0.00,WeatherCatV1.02B3,2013-03-06 08:50:00,
2013-03-06 02:55:00,43.1,26.7,30.25,NE,47,0.0,2.0,52,0.00,,,0.00,WeatherCatV1.02B3,2013-03-06 08:55:00,
2013-03-06 03:00:00,43.2,26.8,30.25,ESE,102,0.0,1.0,52,0.00,,,0.00,WeatherCatV1.02B3,2013-03-06 09:00:00,
2013-03-06 03:05:00,43.1,27.1,30.25,South,173,0.0,5.0,53,0.00,,,0.00,WeatherCatV1.02B3,2013-03-06 09:05:00,
2013-03-06 03:10:00,42.9,27.0,30.25,ENE,57,0.0,1.0,53,0.00,,,0.00,WeatherCatV1.02B3,2013-03-06 09:10:00,
2013-03-06 03:15:00,42.8,26.9,30.25,NE,46,0.0,1.0,53,0.00,,,0.00,WeatherCatV1.02B3,2013-03-06 09:15:00,
2013-03-06 03:20:00,42.7,27.2,30.25,ENE,65,0.0,2.0,54,0.00,,,0.00,WeatherCatV1.02B3,2013-03-06 09:20:00,
2013-03-06 03:25:00,42.6,27.1,30.26,SSE,156,0.0,8.0,54,0.00,,,0.00,WeatherCatV1.02B3,2013-03-06 09:25:00,
2013-03-06 03:30:00,42.4,26.9,30.26,East,96,0.0,1.0,54,0.00,,,0.00,WeatherCatV1.02B3,2013-03-06 09:30:00,
2013-03-06 03:35:00,42.3,27.3,30.26,SSE,167,4.0,4.0,55,0.00,,,0.00,WeatherCatV1.02B3,2013-03-06 09:35:00,
2013-03-06 03:40:00,42.3,27.3,30.26,SE,140,2.0,8.0,55,0.00,,,0.00,WeatherCatV1.02B3,2013-03-06 09:40:00,
2013-03-06 03:45:00,42.3,27.3,30.26,ESE,118,0.0,2.0,55,0.00,,,0.00,WeatherCatV1.02B3,2013-03-06 09:45:00,
2013-03-06 03:50:00,42.2,27.2,30.27,East,98,0.0,6.0,55,0.00,,,0.00,WeatherCatV1.02B3,2013-03-06 09:50:00,
2013-03-06 03:55:00,42.2,27.2,30.27,NE,35,4.0,4.0,55,0.00,,,0.00,WeatherCatV1.02B3,2013-03-06 09:55:00,
2013-03-06 04:00:00,42.0,27.5,30.27,ENE,76,2.0,2.0,56,0.00,,,0.00,WeatherCatV1.02B3,2013-03-06 10:00:00,
2013-03-06 04:05:00,41.9,27.8,30.27,NNE,22,0.0,2.0,57,0.00,,,0.00,WeatherCatV1.02B3,2013-03-06 10:05:00,
2013-03-06 04:10:00,41.8,27.7,30.27,South,188,1.0,4.0,57,0.00,,,0.00,WeatherCatV1.02B3,2013-03-06 10:10:00,
2013-03-06 04:15:00,41.8,27.3,30.27,ESE,109,6.0,6.0,56,0.00,,,0.00,WeatherCatV1.02B3,2013-03-06 10:15:00,
2013-03-06 04:20:00,41.9,27.4,30.28,SSE,153,1.0,7.0,56,0.00,,,0.00,WeatherCatV1.02B3,2013-03-06 10:20:00,
2013-03-06 04:25:00,41.7,27.2,30.28,South,173,5.0,9.0,56,0.00,,,0.00,WeatherCatV1.02B3,2013-03-06 10:25:00,
2013-03-06 04:30:00,41.6,27.5,30.28,East,87,3.0,13.0,57,0.00,,,0.00,WeatherCatV1.02B3,2013-03-06 10:30:00,
2013-03-06 04:35:00,41.5,27.4,30.29,SSE,165,0.0,8.0,57,0.00,,,0.00,WeatherCatV1.02B3,2013-03-06 10:35:00,
2013-03-06 04:40:00,41.4,27.7,30.29,SSE,155,0.0,1.0,58,0.00,,,0.00,WeatherCatV1.02B3,2013-03-06 10:40:00,
2013-03-06 04:45:00,41.3,27.7,30.29,SW,215,0.0,3.0,58,0.00,,,0.00,WeatherCatV1.02B3,2013-03-06 10:45:00,
2013-03-06 04:50:00,41.3,27.7,30.29,NNE,27,1.0,1.0,58,0.00,,,0.00,WeatherCatV1.02B3,2013-03-06 10:50:00,
2013-03-06 04:55:00,41.2,28.0,30.30,South,182,1.0,7.0,59,0.00,,,0.00,WeatherCatV1.02B3,2013-03-06 10:55:00,
2013-03-06 05:00:00,41.0,29.0,30.30,East,90,0.0,7.0,62,0.00,,,0.00,WeatherCatV1.02B3,2013-03-06 11:00:00,
2013-03-06 05:05:00,40.9,27.7,30.30,SSE,149,1.0,6.0,59,0.00,,,0.00,WeatherCatV1.02B3,2013-03-06 11:05:00,
2013-03-06 05:10:00,40.9,27.7,30.30,North,355,0.0,9.0,59,0.00,,,0.00,WeatherCatV1.02B3,2013-03-06 11:10:00,
2013-03-06 05:15:00,40.8,27.6,30.31,North,355,1.0,4.0,59,0.00,,,0.00,WeatherCatV1.02B3,2013-03-06 11:15:00,
2013-03-06 05:20:00,40.7,27.9,30.30,NNE,28,1.0,9.0,60,0.00,,,0.00,WeatherCatV1.02B3,2013-03-06 11:20:00,
2013-03-06 05:25:00,40.6,27.8,30.30,ESE,117,0.0,7.0,60,0.00,,,0.00,WeatherCatV1.02B3,2013-03-06 11:25:00,
2013-03-06 05:30:00,40.5,27.7,30.30,NNE,22,1.0,10.0,60,0.00,,,0.00,WeatherCatV1.02B3,2013-03-06 11:30:00,
2013-03-06 05:35:00,40.5,27.7,30.30,NE,51,3.0,6.0,60,0.00,,,0.00,WeatherCatV1.02B3,2013-03-06 11:35:00,
2013-03-06 05:40:00,40.4,28.0,30.31,NNE,19,0.0,7.0,61,0.00,,,0.00,WeatherCatV1.02B3,2013-03-06 11:40:00,
2013-03-06 05:45:00,40.3,27.9,30.31,SW,214,0.0,2.0,61,0.00,,,0.00,WeatherCatV1.02B3,2013-03-06 11:45:00,
2013-03-06 05:50:00,40.2,27.8,30.31,SE,145,0.0,7.0,61,0.00,,,0.00,WeatherCatV1.02B3,2013-03-06 11:50:00,
2013-03-06 05:55:00,40.1,28.1,30.31,East,89,0.0,1.0,62,0.00,,,0.00,WeatherCatV1.02B3,2013-03-06 11:55:00,
2013-03-06 06:00:00,40.0,27.7,30.31,SE,128,0.0,7.0,61,0.00,,,0.00,WeatherCatV1.02B3,2013-03-06 12:00:00,
2013-03-06 06:05:00,39.9,28.0,30.31,East,82,0.0,5.0,62,0.00,,,0.00,WeatherCatV1.02B3,2013-03-06 12:05:00,
2013-03-06 06:10:00,39.8,27.9,30.32,SSE,148,1.0,11.0,62,0.00,,,0.00,WeatherCatV1.02B3,2013-03-06 12:10:00,
2013-03-06 06:15:00,39.7,27.8,30.32,SSE,165,1.0,5.0,62,0.00,,,0.00,WeatherCatV1.02B3,2013-03-06 12:15:00,
2013-03-06 06:20:00,39.7,27.8,30.32,NE,39,2.0,3.0,62,0.00,,,0.00,WeatherCatV1.02B3,2013-03-06 12:20:00,
2013-03-06 06:25:00,39.7,27.8,30.32,NNE,18,2.0,4.0,62,0.00,,,0.00,WeatherCatV1.02B3,2013-03-06 12:25:00,
2013-03-06 06:30:00,39.6,28.1,30.32,ESE,105,1.0,5.0,63,0.00,,,0.00,WeatherCatV1.02B3,2013-03-06 12:30:00,
2013-03-06 06:35:00,39.5,27.6,30.32,NE,44,0.0,2.0,62,0.00,,,0.00,WeatherCatV1.02B3,2013-03-06 12:35:00,
2013-03-06 06:40:00,39.5,28.0,30.33,SE,134,5.0,5.0,63,0.00,,,0.00,WeatherCatV1.02B3,2013-03-06 12:40:00,
2013-03-06 06:45:00,39.4,27.9,30.33,East,88,1.0,5.0,63,0.00,,,0.00,WeatherCatV1.02B3,2013-03-06 12:45:00,
2013-03-06 06:50:00,39.3,28.2,30.33,SSE,156,0.0,2.0,64,0.00,,,0.00,WeatherCatV1.02B3,2013-03-06 12:50:00,
2013-03-06 06:55:00,39.3,28.2,30.33,SSW,211,3.0,5.0,64,0.00,,,0.00,WeatherCatV1.02B3,2013-03-06 12:55:00,
2013-03-06 07:00:00,39.3,28.2,30.33,NW,315,0.0,7.0,64,0.00,,,0.00,WeatherCatV1.02B3,2013-03-06 13:00:00,
2013-03-06 07:05:00,39.3,28.2,30.33,South,178,6.0,7.0,64,0.00,,,0.00,WeatherCatV1.02B3,2013-03-06 13:05:00,
2013-03-06 07:10:00,39.3,28.5,30.33,South,177,0.0,8.0,65,0.00,,,0.00,WeatherCatV1.02B3,2013-03-06 13:10:00,
2013-03-06 07:15:00,39.3,28.5,30.34,South,181,4.0,11.0,65,0.00,,,0.00,WeatherCatV1.02B3,2013-03-06 13:15:00,
2013-03-06 07:20:00,39.4,28.2,30.34,NW,319,1.0,8.0,64,0.00,,,0.00,WeatherCatV1.02B3,2013-03-06 13:20:00,
2013-03-06 07:25:00,39.4,28.6,30.34,SSE,161,2.0,4.0,65,0.00,,,0.00,WeatherCatV1.02B3,2013-03-06 13:25:00,
2013-03-06 07:30:00,39.5,28.7,30.34,South,170,8.0,9.0,65,0.00,,,0.00,WeatherCatV1.02B3,2013-03-06 13:30:00,
2013-03-06 07:35:00,39.5,28.0,30.35,SSE,163,5.0,7.0,63,0.00,,,0.00,WeatherCatV1.02B3,2013-03-06 13:35:00,
2013-03-06 07:40:00,39.5,28.3,30.35,ENE,69,1.0,7.0,64,0.00,,,0.00,WeatherCatV1.02B3,2013-03-06 13:40:00,
2013-03-06 07:45:00,39.7,28.2,30.35,SSE,167,8.0,15.0,63,0.00,,,0.00,WeatherCatV1.02B3,2013-03-06 13:45:00,
2013-03-06 07:50:00,39.8,28.6,30.35,SSE,156,5.0,14.0,64,0.00,,,0.00,WeatherCatV1.02B3,2013-03-06 13:50:00,
2013-03-06 07:55:00,39.9,28.3,30.36,SSE,152,0.0,11.0,63,0.00,,,0.00,WeatherCatV1.02B3,2013-03-06 13:55:00,
2013-03-06 08:00:00,40.1,28.5,30.36,SE,134,4.0,12.0,63,0.00,,,0.00,WeatherCatV1.02B3,2013-03-06 14:00:00,
2013-03-06 08:05:00,40.1,28.9,30.36,SSE,160,6.0,9.0,64,0.00,,,0.00,WeatherCatV1.02B3,2013-03-06 14:05:00,
2013-03-06 08:10:00,40.2,28.6,30.37,South,178,2.0,9.0,63,0.00,,,0.00,WeatherCatV1.02B3,2013-03-06 14:10:00,
2013-03-06 08:15:00,40.2,28.6,30.37,SSE,158,0.0,11.0,63,0.00,,,0.00,WeatherCatV1.02B3,2013-03-06 14:15:00,
2013-03-06 08:20:00,40.5,29.3,30.37,SSE,152,6.0,6.0,64,0.00,,,0.00,WeatherCatV1.02B3,2013-03-06 14:20:00,
2013-03-06 08:25:00,40.5,28.9,30.37,South,186,5.0,8.0,63,0.00,,,0.00,WeatherCatV1.02B3,2013-03-06 14:25:00,
2013-03-06 08:30:00,40.6,28.6,30.37,South,176,0.0,7.0,62,0.00,,,0.00,WeatherCatV1.02B3,2013-03-06 14:30:00,
2013-03-06 08:35:00,40.7,28.7,30.37,SSE,153,5.0,12.0,62,0.00,,,0.00,WeatherCatV1.02B3,2013-03-06 14:35:00,
2013-03-06 08:40:00,41.0,28.6,30.37,South,182,4.0,10.0,61,0.00,,,0.00,WeatherCatV1.02B3,2013-03-06 14:40:00,
2013-03-06 08:45:00,41.1,28.3,30.37,SSE,165,4.0,12.0,60,0.00,,,0.00,WeatherCatV1.02B3,2013-03-06 14:45:00,
2013-03-06 08:50:00,41.3,28.1,30.37,South,176,2.0,11.0,59,0.00,,,0.00,WeatherCatV1.02B3,2013-03-06 14:50:00,
2013-03-06 08:55:00,41.5,28.3,30.37,SSE,147,5.0,12.0,59,0.00,,,0.00,WeatherCatV1.02B3,2013-03-06 14:55:00,
2013-03-06 09:00:00,41.5,28.3,30.37,South,172,5.0,9.0,59,0.00,,,0.00,WeatherCatV1.02B3,2013-03-06 15:00:00,
2013-03-06 09:05:00,41.8,28.9,30.37,SE,140,2.0,5.0,60,0.00,,,0.00,WeatherCatV1.02B3,2013-03-06 15:05:00,
2013-03-06 09:10:00,41.9,28.2,30.37,SW,215,0.0,11.0,58,0.00,,,0.00,WeatherCatV1.02B3,2013-03-06 15:10:00,
2013-03-06 09:15:00,42.3,29.0,30.37,ESE,117,2.0,12.0,59,0.00,,,0.00,WeatherCatV1.02B3,2013-03-06 15:15:00,
2013-03-06 09:20:00,42.3,28.2,30.37,SSE,151,9.0,12.0,57,0.00,,,0.00,WeatherCatV1.02B3,2013-03-06 15:20:00,
2013-03-06 09:25:00,42.3,28.6,30.37,SE,142,1.0,7.0,58,0.00,,,0.00,WeatherCatV1.02B3,2013-03-06 15:25:00,
2013-03-06 09:30:00,42.6,29.3,30.38,South,186,3.0,7.0,59,0.00,,,0.00,WeatherCatV1.02B3,2013-03-06 15:30:00,
2013-03-06 09:35:00,43.2,29.0,30.37,NE,50,2.0,7.0,57,0.00,,,0.00,WeatherCatV1.02B3,2013-03-06 15:35:00,
2013-03-06 09:40:00,42.8,28.6,30.37,NE,55,4.0,6.0,57,0.00,,,0.00,WeatherCatV1.02B3,2013-03-06 15:40:00,
2013-03-06 09:45:00,42.7,28.5,30.37,SE,127,5.0,11.0,57,0.00,,,0.00,WeatherCatV1.02B3,2013-03-06 15:45:00,
2013-03-06 09:50:00,43.1,29.3,30.37,SSE,163,5.0,11.0,58,0.00,,,0.00,WeatherCatV1.02B3,2013-03-06 15:50:00,
2013-03-06 09:55:00,43.6,28.5,30.37,South,171,4.0,11.0,55,0.00,,,0.00,WeatherCatV1.02B3,2013-03-06 15:55:00,
2013-03-06 10:00:00,43.8,28.7,30.37,South,190,0.0,10.0,55,0.00,,,0.00,WeatherCatV1.02B3,2013-03-06 16:00:00,
2013-03-06 10:05:00,44.0,28.9,30.37,SE,130,4.0,5.0,55,0.00,,,0.00,WeatherCatV1.02B3,2013-03-06 16:05:00,
2013-03-06 10:10:00,44.0,28.9,30.37,South,182,5.0,9.0,55,0.00,,,0.00,WeatherCatV1.02B3,2013-03-06 16:10:00,
2013-03-06 10:15:00,44.4,29.3,30.37,NE,42,2.0,6.0,55,0.00,,,0.00,WeatherCatV1.02B3,2013-03-06 16:15:00,
2013-03-06 10:20:00,44.2,29.5,30.37,SSE,162,5.0,6.0,56,0.00,,,0.00,WeatherCatV1.02B3,2013-03-06 16:20:00,
2013-03-06 10:25:00,44.5,29.4,30.37,SE,128,0.0,4.0,55,0.00,,,0.00,WeatherCatV1.02B3,2013-03-06 16:25:00,
2013-03-06 10:30:00,45.2,30.0,30.37,South,188,2.0,5.0,55,0.00,,,0.00,WeatherCatV1.02B3,2013-03-06 16:30:00,
2013-03-06 10:35:00,45.6,29.5,30.37,SE,142,0.0,7.0,53,0.00,,,0.00,WeatherCatV1.02B3,2013-03-06 16:35:00,
2013-03-06 10:40:00,45.8,29.7,30.37,South,180,3.0,12.0,53,0.00,,,0.00,WeatherCatV1.02B3,2013-03-06 16:40:00,
2013-03-06 10:45:00,46.1,29.5,30.37,South,180,5.0,8.0,52,0.00,,,0.00,WeatherCatV1.02B3,2013-03-06 16:45:00,
2013-03-06 10:50:00,45.9,29.3,30.37,NE,53,1.0,6.0,52,0.00,,,0.00,WeatherCatV1.02B3,2013-03-06 16:50:00,
2013-03-06 10:55:00,45.9,29.7,30.37,NNE,28,2.0,10.0,53,0.00,,,0.00,WeatherCatV1.02B3,2013-03-06 16:55:00,
2013-03-06 11:00:00,45.9,29.3,30.37,SSE,164,4.0,12.0,52,0.00,,,0.00,WeatherCatV1.02B3,2013-03-06 17:00:00,
2013-03-06 11:05:00,46.0,29.4,30.37,South,173,0.0,7.0,52,0.00,,,0.00,WeatherCatV1.02B3,2013-03-06 17:05:00,
2013-03-06 11:10:00,46.4,29.7,30.37,South,171,1.0,1.0,52,0.00,,,0.00,WeatherCatV1.02B3,2013-03-06 17:10:00,
2013-03-06 11:15:00,46.7,30.5,30.37,SE,136,6.0,6.0,53,0.00,,,0.00,WeatherCatV1.02B3,2013-03-06 17:15:00,
2013-03-06 11:20:00,47.2,31.0,30.37,South,184,1.0,5.0,53,0.00,,,0.00,WeatherCatV1.02B3,2013-03-06 17:20:00,
2013-03-06 11:25:00,47.6,30.9,30.37,South,175,2.0,8.0,52,0.00,,,0.00,WeatherCatV1.02B3,2013-03-06 17:25:00,
2013-03-06 11:30:00,48.0,30.7,30.37,South,171,0.0,6.0,51,0.00,,,0.00,WeatherCatV1.02B3,2013-03-06 17:30:00,
2013-03-06 11:35:00,48.0,29.8,30.37,ENE,68,0.0,6.0,49,0.00,,,0.00,WeatherCatV1.02B3,2013-03-06 17:35:00,
2013-03-06 11:40:00,47.7,30.5,30.37,South,172,2.0,12.0,51,0.00,,,0.00,WeatherCatV1.02B3,2013-03-06 17:40:00,
2013-03-06 11:45:00,47.8,30.1,30.37,ENE,58,0.0,2.0,50,0.00,,,0.00,WeatherCatV1.02B3,2013-03-06 17:45:00,
2013-03-06 11:50:00,47.3,29.1,30.37,SSE,149,1.0,7.0,49,0.00,,,0.00,WeatherCatV1.02B3,2013-03-06 17:50:00,
2013-03-06 11:55:00,48.1,30.8,30.36,SSE,157,0.0,11.0,51,0.00,,,0.00,WeatherCatV1.02B3,2013-03-06 17:55:00,
2013-03-06 12:00:00,48.4,29.6,30.36,ESE,112,1.0,7.0,48,0.00,,,0.00,WeatherCatV1.02B3,2013-03-06 18:00:00,
2013-03-06 12:05:00,48.0,28.7,30.36,NE,42,0.0,8.0,47,0.00,,,0.00,WeatherCatV1.02B3,2013-03-06 18:05:00,
2013-03-06 12:10:00,48.0,30.3,30.36,South,173,0.0,7.0,50,0.00,,,0.00,WeatherCatV1.02B3,2013-03-06 18:10:00,
2013-03-06 12:15:00,48.0,30.3,30.36,ESE,111,4.0,7.0,50,0.00,,,0.00,WeatherCatV1.02B3,2013-03-06 18:15:00,
2013-03-06 12:20:00,48.3,30.0,30.35,SSE,157,0.0,5.0,49,0.00,,,0.00,WeatherCatV1.02B3,2013-03-06 18:20:00,
2013-03-06 12:25:00,49.0,30.7,30.35,South,179,0.0,4.0,49,0.00,,,0.00,WeatherCatV1.02B3,2013-03-06 18:25:00,
2013-03-06 12:30:00,49.6,30.2,30.35,South,178,8.0,8.0,47,0.00,,,0.00,WeatherCatV1.02B3,2013-03-06 18:30:00,
2013-03-06 12:35:00,49.8,30.4,30.35,NNE,28,2.0,8.0,47,0.00,,,0.00,WeatherCatV1.02B3,2013-03-06 18:35:00,
2013-03-06 12:40:00,49.5,30.6,30.34,SE,135,10.0,13.0,48,0.00,,,0.00,WeatherCatV1.02B3,2013-03-06 18:40:00,
2013-03-06 12:45:00,49.5,29.6,30.34,South,184,2.0,10.0,46,0.00,,,0.00,WeatherCatV1.02B3,2013-03-06 18:45:00,
2013-03-06 12:50:00,49.2,29.8,30.34,SE,132,0.0,9.0,47,0.00,,,0.00,WeatherCatV1.02B3,2013-03-06 18:50:00,
2013-03-06 12:55:00,49.6,31.2,30.34,SSE,161,8.0,12.0,49,0.00,,,0.00,WeatherCatV1.02B3,2013-03-06 18:55:00,
2013-03-06 13:00:00,49.7,29.8,30.34,South,172,6.0,6.0,46,0.00,,,0.00,WeatherCatV1.02B3,2013-03-06 19:00:00,
2013-03-06 13:05:00,50.2,30.2,30.33,NE,51,2.0,7.0,46,0.00,,,0.00,WeatherCatV1.02B3,2013-03-06 19:05:00,
2013-03-06 13:10:00,49.9,30.0,30.33,SSE,163,13.0,14.0,46,0.00,,,0.00,WeatherCatV1.02B3,2013-03-06 19:10:00,
2013-03-06 13:15:00,50.8,30.8,30.33,South,173,2.0,8.0,46,0.00,,,0.00,WeatherCatV1.02B3,2013-03-06 19:15:00,
2013-03-06 13:20:00,50.2,29.7,30.33,SE,138,1.0,5.0,45,0.00,,,0.00,WeatherCatV1.02B3,2013-03-06 19:20:00,
2013-03-06 13:25:00,50.4,29.3,30.33,South,175,0.0,6.0,44,0.00,,,0.00,WeatherCatV1.02B3,2013-03-06 19:25:00,
2013-03-06 13:30:00,51.0,31.0,30.33,SW,220,0.0,5.0,46,0.00,,,0.00,WeatherCatV1.02B3,2013-03-06 19:30:00,
2013-03-06 13:35:00,51.4,29.7,30.33,South,181,4.0,6.0,43,0.00,,,0.00,WeatherCatV1.02B3,2013-03-06 19:35:00,
2013-03-06 13:40:00,50.7,29.6,30.33,SSE,148,8.0,8.0,44,0.00,,,0.00,WeatherCatV1.02B3,2013-03-06 19:40:00,
2013-03-06 13:45:00,51.2,30.0,30.33,SSE,150,2.0,9.0,44,0.00,,,0.00,WeatherCatV1.02B3,2013-03-06 19:45:00,
2013-03-06 13:50:00,50.8,29.7,30.33,SSE,161,6.0,6.0,44,0.00,,,0.00,WeatherCatV1.02B3,2013-03-06 19:50:00,
2013-03-06 13:55:00,50.8,30.8,30.32,SSE,157,1.0,8.0,46,0.00,,,0.00,WeatherCatV1.02B3,2013-03-06 19:55:00,
2013-03-06 14:00:00,51.1,31.0,30.32,West,273,0.0,1.0,46,0.00,,,0.00,WeatherCatV1.02B3,2013-03-06 20:00:00,
2013-03-06 14:05:00,51.5,31.9,30.32,South,182,0.0,8.0,47,0.00,,,0.00,WeatherCatV1.02B3,2013-03-06 20:05:00,
2013-03-06 14:10:00,50.6,29.5,30.32,East,88,6.0,7.0,44,0.00,,,0.00,WeatherCatV1.02B3,2013-03-06 20:10:00,
2013-03-06 14:15:00,50.3,30.8,30.32,SSE,159,0.0,5.0,47,0.00,,,0.00,WeatherCatV1.02B3,2013-03-06 20:15:00,
2013-03-06 14:20:00,50.1,29.6,30.32,ENE,78,0.0,1.0,45,0.00,,,0.00,WeatherCatV1.02B3,2013-03-06 20:20:00,
2013-03-06 14:25:00,50.5,30.5,30.31,NNE,28,0.0,11.0,46,0.00,,,0.00,WeatherCatV1.02B3,2013-03-06 20:25:00,
2013-03-06 14:30:00,50.6,30.1,30.31,ENE,74,3.0,7.0,45,0.00,,,0.00,WeatherCatV1.02B3,2013-03-06 20:30:00,
2013-03-06 14:35:00,51.4,31.9,30.31,SSE,147,6.0,11.0,47,0.00,,,0.00,WeatherCatV1.02B3,2013-03-06 20:35:00,
2013-03-06 14:40:00,51.1,30.5,30.31,SSE,151,4.0,9.0,45,0.00,,,0.00,WeatherCatV1.02B3,2013-03-06 20:40:00,
2013-03-06 14:45:00,51.0,29.9,30.31,SSE,160,0.0,6.0,44,0.00,,,0.00,WeatherCatV1.02B3,2013-03-06 20:45:00,
2013-03-06 14:50:00,51.0,31.0,30.31,South,175,4.0,5.0,46,0.00,,,0.00,WeatherCatV1.02B3,2013-03-06 20:50:00,
2013-03-06 14:55:00,51.2,30.6,30.30,South,190,0.0,8.0,45,0.00,,,0.00,WeatherCatV1.02B3,2013-03-06 20:55:00,
2013-03-06 15:00:00,51.5,30.3,30.30,SE,126,4.0,7.0,44,0.00,,,0.00,WeatherCatV1.02B3,2013-03-06 21:00:00,
2013-03-06 15:05:00,51.1,30.0,30.30,North,5,4.0,5.0,44,0.00,,,0.00,WeatherCatV1.02B3,2013-03-06 21:05:00,
2013-03-06 15:10:00,50.8,31.3,30.30,South,179,5.0,6.0,47,0.00,,,0.00,WeatherCatV1.02B3,2013-03-06 21:10:00,
2013-03-06 15:15:00,51.5,31.4,30.30,ESE,123,0.0,8.0,46,0.00,,,0.00,WeatherCatV1.02B3,2013-03-06 21:15:00,
2013-03-06 15:20:00,51.2,30.0,30.30,NE,49,1.0,8.0,44,0.00,,,0.00,WeatherCatV1.02B3,2013-03-06 21:20:00,
2013-03-06 15:25:00,50.1,29.6,30.29,SE,146,0.0,7.0,45,0.00,,,0.00,WeatherCatV1.02B3,2013-03-06 21:25:00,
2013-03-06 15:30:00,50.6,30.1,30.29,ESE,107,4.0,5.0,45,0.00,,,0.00,WeatherCatV1.02B3,2013-03-06 21:30:00,
2013-03-06 15:35:00,50.8,30.8,30.29,NNE,22,0.0,4.0,46,0.00,,,0.00,WeatherCatV1.02B3,2013-03-06 21:35:00,
2013-03-06 15:40:00,51.7,32.6,30.29,SSE,159,1.0,6.0,48,0.00,,,0.00,WeatherCatV1.02B3,2013-03-06 21:40:00,
2013-03-06 15:45:00,52.1,30.9,30.29,South,177,1.0,8.0,44,0.00,,,0.00,WeatherCatV1.02B3,2013-03-06 21:45:00,
2013-03-06 15:50:00,52.0,30.8,30.29,SSE,153,0.0,6.0,44,0.00,,,0.00,WeatherCatV1.02B3,2013-03-06 21:50:00,
2013-03-06 15:55:00,51.7,30.5,30.29,SE,126,2.0,4.0,44,0.00,,,0.00,WeatherCatV1.02B3,2013-03-06 21:55:00,
2013-03-06 16:00:00,51.3,30.1,30.29,NE,55,1.0,5.0,44,0.00,,,0.00,WeatherCatV1.02B3,2013-03-06 22:00:00,
2013-03-06 16:05:00,51.1,31.0,30.29,SSE,159,0.0,6.0,46,0.00,,,0.00,WeatherCatV1.02B3,2013-03-06 22:05:00,
2013-03-06 16:10:00,51.0,30.4,30.29,SSE,156,5.0,6.0,45,0.00,,,0.00,WeatherCatV1.02B3,2013-03-06 22:10:00,
2013-03-06 16:15:00,50.9,31.4,30.29,South,182,0.0,6.0,47,0.00,,,0.00,WeatherCatV1.02B3,2013-03-06 22:15:00,
2013-03-06 16:20:00,50.2,30.8,30.29,ENE,72,3.0,5.0,47,0.00,,,0.00,WeatherCatV1.02B3,2013-03-06 22:20:00,
2013-03-06 16:25:00,49.8,30.4,30.29,East,84,0.0,1.0,47,0.00,,,0.00,WeatherCatV1.02B3,2013-03-06 22:25:00,
2013-03-06 16:30:00,49.8,30.4,30.30,NE,46,1.0,8.0,47,0.00,,,0.00,WeatherCatV1.02B3,2013-03-06 22:30:00,
2013-03-06 16:35:00,49.9,31.5,30.30,SSE,165,6.0,9.0,49,0.00,,,0.00,WeatherCatV1.02B3,2013-03-06 22:35:00,
2013-03-06 16:40:00,49.8,30.9,30.30,SSE,159,8.0,8.0,48,0.00,,,0.00,WeatherCatV1.02B3,2013-03-06 22:40:00,
2013-03-06 16:45:00,49.6,30.2,30.30,SSE,167,0.0,8.0,47,0.00,,,0.00,WeatherCatV1.02B3,2013-03-06 22:45:00,
2013-03-06 16:50:00,49.6,30.7,30.30,North,355,0.0,4.0,48,0.00,,,0.00,WeatherCatV1.02B3,2013-03-06 22:50:00,
2013-03-06 16:55:00,49.5,30.6,30.30,SSE,165,0.0,12.0,48,0.00,,,0.00,WeatherCatV1.02B3,2013-03-06 22:55:00,
2013-03-06 17:00:00,49.4,30.5,30.31,SSE,167,4.0,4.0,48,0.00,,,0.00,WeatherCatV1.02B3,2013-03-06 23:00:00,
2013-03-06 17:05:00,49.3,31.0,30.31,SSW,196,0.0,7.0,49,0.00,,,0.00,WeatherCatV1.02B3,2013-03-06 23:05:00,
2013-03-06 17:10:00,49.2,30.9,30.31,South,171,0.0,5.0,49,0.00,,,0.00,WeatherCatV1.02B3,2013-03-06 23:10:00,
2013-03-06 17:15:00,49.1,31.3,30.31,ESE,107,1.0,10.0,50,0.00,,,0.00,WeatherCatV1.02B3,2013-03-06 23:15:00,
2013-03-06 17:20:00,48.8,31.0,30.31,SSE,159,1.0,2.0,50,0.00,,,0.00,WeatherCatV1.02B3,2013-03-06 23:20:00,
2013-03-06 17:25:00,48.6,31.3,30.31,NE,36,1.0,2.0,51,0.00,,,0.00,WeatherCatV1.02B3,2013-03-06 23:25:00,
2013-03-06 17:31:00,48.3,31.5,30.31,NE,36,0.0,1.0,52,0.00,,,0.00,WeatherCatV1.02B3,2013-03-06 23:31:00,
2013-03-06 17:36:00,48.3,31.5,30.31,SSW,192,0.0,1.0,52,0.00,,,0.00,WeatherCatV1.02B3,2013-03-06 23:36:00,
2013-03-06 17:41:00,48.1,31.3,30.31,NW,326,0.0,4.0,52,0.00,,,0.00,WeatherCatV1.02B3,2013-03-06 23:41:00,
2013-03-06 17:46:00,48.0,30.7,30.31,East,79,1.0,5.0,51,0.00,,,0.00,WeatherCatV1.02B3,2013-03-06 23:46:00,
2013-03-06 17:51:00,47.7,30.9,30.32,SSE,149,0.0,4.0,52,0.00,,,0.00,WeatherCatV1.02B3,2013-03-06 23:51:00,
2013-03-06 17:56:00,47.4,31.6,30.32,ESE,102,0.0,2.0,54,0.00,,,0.00,WeatherCatV1.02B3,2013-03-06 23:56:00,
2013-03-06 18:01:00,47.2,31.0,30.32,ESE,111,2.0,4.0,53,0.00,,,0.00,WeatherCatV1.02B3,2013-03-07 00:01:00,
2013-03-06 18:06:00,47.0,30.8,30.32,ESE,108,0.0,1.0,53,0.00,,,0.00,WeatherCatV1.02B3,2013-03-07 00:06:00,
2013-03-06 18:11:00,46.9,31.1,30.32,ESE,108,0.0,1.0,54,0.00,,,0.00,WeatherCatV1.02B3,2013-03-07 00:11:00,
2013-03-06 18:16:00,46.5,31.2,30.31,SE,136,0.0,4.0,55,0.00,,,0.00,WeatherCatV1.02B3,2013-03-07 00:16:00,
2013-03-06 18:21:00,46.3,31.0,30.32,SSE,148,0.0,4.0,55,0.00,,,0.00,WeatherCatV1.02B3,2013-03-07 00:21:00,
2013-03-06 18:26:00,46.1,31.3,30.32,SE,133,0.0,1.0,56,0.00,,,0.00,WeatherCatV1.02B3,2013-03-07 00:26:00,
2013-03-06 18:31:00,46.0,31.2,30.32,SSE,161,1.0,2.0,56,0.00,,,0.00,WeatherCatV1.02B3,2013-03-07 00:31:00,
2013-03-06 18:36:00,45.9,31.5,30.32,ESE,123,0.0,2.0,57,0.00,,,0.00,WeatherCatV1.02B3,2013-03-07 00:36:00,
2013-03-06 18:41:00,45.8,31.9,30.32,SSE,155,0.0,1.0,58,0.00,,,0.00,WeatherCatV1.02B3,2013-03-07 00:41:00,
2013-03-06 18:46:00,45.7,31.8,30.32,SE,142,1.0,7.0,58,0.00,,,0.00,WeatherCatV1.02B3,2013-03-07 00:46:00,
2013-03-06 18:51:00,45.6,31.7,30.32,ESE,111,0.0,2.0,58,0.00,,,0.00,WeatherCatV1.02B3,2013-03-07 00:51:00,
2013-03-06 18:56:00,45.4,31.9,30.32,SE,146,1.0,2.0,59,0.00,,,0.00,WeatherCatV1.02B3,2013-03-07 00:56:00,
2013-03-06 19:01:00,45.3,32.2,30.33,SSE,167,0.0,4.0,60,0.00,,,0.00,WeatherCatV1.02B3,2013-03-07 01:01:00,
2013-03-06 19:06:00,45.2,32.1,30.33,NE,55,0.0,1.0,60,0.00,,,0.00,WeatherCatV1.02B3,2013-03-07 01:06:00,
2013-03-06 19:11:00,45.1,32.1,30.33,SSE,161,0.0,4.0,60,0.00,,,0.00,WeatherCatV1.02B3,2013-03-07 01:11:00,
2013-03-06 19:16:00,45.0,32.4,30.33,SSE,156,6.0,8.0,61,0.00,,,0.00,WeatherCatV1.02B3,2013-03-07 01:16:00,
2013-03-06 19:21:00,44.9,32.7,30.33,SE,143,1.0,5.0,62,0.00,,,0.00,WeatherCatV1.02B3,2013-03-07 01:21:00,
2013-03-06 19:26:00,44.8,32.6,30.33,SE,140,0.0,5.0,62,0.00,,,0.00,WeatherCatV1.02B3,2013-03-07 01:26:00,
2013-03-06 19:31:00,44.6,32.4,30.33,SE,135,0.0,2.0,62,0.00,,,0.00,WeatherCatV1.02B3,2013-03-07 01:31:00,
2013-03-06 19:36:00,44.5,32.7,30.33,ESE,122,0.0,2.0,63,0.00,,,0.00,WeatherCatV1.02B3,2013-03-07 01:36:00,
2013-03-06 19:41:00,44.4,32.6,30.33,East,101,0.0,4.0,63,0.00,,,0.00,WeatherCatV1.02B3,2013-03-07 01:41:00,
2013-03-06 19:46:00,44.3,32.5,30.33,ESE,103,1.0,5.0,63,0.00,,,0.00,WeatherCatV1.02B3,2013-03-07 01:46:00,
2013-03-06 19:51:00,44.2,32.4,30.33,West,281,1.0,1.0,63,0.00,,,0.00,WeatherCatV1.02B3,2013-03-07 01:51:00,
2013-03-06 19:56:00,44.1,32.7,30.33,SSE,159,0.0,2.0,64,0.00,,,0.00,WeatherCatV1.02B3,2013-03-07 01:56:00,
2013-03-06 20:01:00,44.0,32.6,30.33,SSE,159,1.0,4.0,64,0.00,,,0.00,WeatherCatV1.02B3,2013-03-07 02:01:00,
2013-03-06 20:06:00,43.8,32.8,30.34,SE,136,0.0,7.0,65,0.00,,,0.00,WeatherCatV1.02B3,2013-03-07 02:06:00,
2013-03-06 20:11:00,43.7,33.1,30.34,SE,142,0.0,2.0,66,0.00,,,0.00,WeatherCatV1.02B3,2013-03-07 02:11:00,
2013-03-06 20:16:00,43.5,32.9,30.34,SSE,148,5.0,5.0,66,0.00,,,0.00,WeatherCatV1.02B3,2013-03-07 02:16:00,
2013-03-06 20:21:00,43.4,32.8,30.34,SE,131,4.0,4.0,66,0.00,,,0.00,WeatherCatV1.02B3,2013-03-07 02:21:00,
2013-03-06 20:26:00,43.3,32.7,30.34,SE,141,0.0,1.0,66,0.00,,,0.00,WeatherCatV1.02B3,2013-03-07 02:26:00,
2013-03-06 20:31:00,43.1,32.5,30.34,SE,138,1.0,8.0,66,0.00,,,0.00,WeatherCatV1.02B3,2013-03-07 02:31:00,
2013-03-06 20:36:00,43.0,32.4,30.34,SSE,159,5.0,6.0,66,0.00,,,0.00,WeatherCatV1.02B3,2013-03-07 02:36:00,
2013-03-06 20:41:00,42.9,32.3,30.35,SSE,157,1.0,4.0,66,0.00,,,0.00,WeatherCatV1.02B3,2013-03-07 02:41:00,
2013-03-06 20:46:00,42.8,32.2,30.34,SSE,157,1.0,5.0,66,0.00,,,0.00,WeatherCatV1.02B3,2013-03-07 02:46:00,
2013-03-06 20:51:00,42.7,32.5,30.35,SSE,159,0.0,0.0,67,0.00,,,0.00,WeatherCatV1.02B3,2013-03-07 02:51:00,
2013-03-06 20:56:00,42.7,32.1,30.35,SSE,148,4.0,6.0,66,0.00,,,0.00,WeatherCatV1.02B3,2013-03-07 02:56:00,
2013-03-06 21:01:00,42.6,32.4,30.35,SSW,194,2.0,6.0,67,0.00,,,0.00,WeatherCatV1.02B3,2013-03-07 03:01:00,
2013-03-06 21:06:00,42.5,32.3,30.35,South,169,4.0,5.0,67,0.00,,,0.00,WeatherCatV1.02B3,2013-03-07 03:06:00,
2013-03-06 21:11:00,42.4,32.2,30.35,SSE,147,4.0,6.0,67,0.00,,,0.00,WeatherCatV1.02B3,2013-03-07 03:11:00,
2013-03-06 21:16:00,42.3,32.5,30.35,SSE,163,1.0,4.0,68,0.00,,,0.00,WeatherCatV1.02B3,2013-03-07 03:16:00,
2013-03-06 21:21:00,42.2,32.4,30.35,SSE,157,6.0,7.0,68,0.00,,,0.00,WeatherCatV1.02B3,2013-03-07 03:21:00,
2013-03-06 21:26:00,42.1,32.3,30.35,South,172,0.0,6.0,68,0.00,,,0.00,WeatherCatV1.02B3,2013-03-07 03:26:00,
2013-03-06 21:31:00,42.0,32.2,30.36,South,171,2.0,2.0,68,0.00,,,0.00,WeatherCatV1.02B3,2013-03-07 03:31:00,
2013-03-06 21:36:00,42.0,32.6,30.35,South,175,0.0,4.0,69,0.00,,,0.00,WeatherCatV1.02B3,2013-03-07 03:36:00,
2013-03-06 21:41:00,41.8,32.4,30.35,South,175,0.0,0.0,69,0.00,,,0.00,WeatherCatV1.02B3,2013-03-07 03:41:00,
2013-03-06 21:46:00,41.7,32.3,30.35,South,172,2.0,5.0,69,0.00,,,0.00,WeatherCatV1.02B3,2013-03-07 03:46:00,
2013-03-06 21:51:00,41.6,32.2,30.35,South,172,0.0,1.0,69,0.00,,,0.00,WeatherCatV1.02B3,2013-03-07 03:51:00,
2013-03-06 21:56:00,41.5,32.1,30.34,South,172,0.0,5.0,69,0.00,,,0.00,WeatherCatV1.02B3,2013-03-07 03:56:00,
2013-03-06 22:01:00,41.5,32.5,30.35,South,171,4.0,5.0,70,0.00,,,0.00,WeatherCatV1.02B3,2013-03-07 04:01:00,
2013-03-06 22:06:00,41.5,32.5,30.35,South,174,4.0,6.0,70,0.00,,,0.00,WeatherCatV1.02B3,2013-03-07 04:06:00,
2013-03-06 22:11:00,41.5,32.5,30.34,SSW,194,0.0,4.0,70,0.00,,,0.00,WeatherCatV1.02B3,2013-03-07 04:11:00,
2013-03-06 22:16:00,41.4,32.4,30.35,South,178,2.0,6.0,70,0.00,,,0.00,WeatherCatV1.02B3,2013-03-07 04:16:00,
2013-03-06 22:21:00,41.4,32.4,30.34,SSE,159,0.0,4.0,70,0.00,,,0.00,WeatherCatV1.02B3,2013-03-07 04:21:00,
2013-03-06 22:26:00,41.3,32.3,30.34,South,169,0.0,4.0,70,0.00,,,0.00,WeatherCatV1.02B3,2013-03-07 04:26:00,
2013-03-06 22:31:00,41.3,32.3,30.34,South,173,0.0,0.0,70,0.00,,,0.00,WeatherCatV1.02B3,2013-03-07 04:31:00,
2013-03-06 22:36:00,41.2,32.2,30.34,South,173,1.0,4.0,70,0.00,,,0.00,WeatherCatV1.02B3,2013-03-07 04:36:00,
2013-03-06 22:41:00,41.1,32.4,30.34,South,173,0.0,1.0,71,0.00,,,0.00,WeatherCatV1.02B3,2013-03-07 04:41:00,
2013-03-06 22:46:00,41.1,32.4,30.34,South,173,1.0,4.0,71,0.00,,,0.00,WeatherCatV1.02B3,2013-03-07 04:46:00,
2013-03-06 22:51:00,40.9,32.6,30.34,South,173,0.0,0.0,72,0.00,,,0.00,WeatherCatV1.02B3,2013-03-07 04:51:00,
2013-03-06 22:54:00,40.8,32.5,30.34,South,173,0.0,1.0,72,0.00,,,0.00,WeatherCatV1.02B3,2013-03-07 04:54:00,
2013-03-06 22:59:00,40.7,32.4,30.34,South,173,0.0,1.0,72,0.00,,,0.00,WeatherCatV1.02B3,2013-03-07 04:59:00,
2013-03-06 23:00:00,40.6,32.3,30.33,South,173,0.0,1.0,72,0.00,,,0.00,WeatherCatV1.02B3,2013-03-07 05:00:00,
2013-03-06 23:05:00,40.4,32.4,30.34,South,173,0.0,2.0,73,0.00,,,0.00,WeatherCatV1.02B3,2013-03-07 05:05:00,
2013-03-06 23:10:00,40.4,32.4,30.34,South,173,0.0,0.0,73,0.00,,,0.00,WeatherCatV1.02B3,2013-03-07 05:10:00,
2013-03-06 23:15:00,40.3,32.3,30.34,South,173,0.0,1.0,73,0.00,,,0.00,WeatherCatV1.02B3,2013-03-07 05:15:00,
2013-03-06 23:20:00,40.2,32.6,30.34,South,173,0.0,4.0,74,0.00,,,0.00,WeatherCatV1.02B3,2013-03-07 05:20:00,
2013-03-06 23:25:00,40.2,32.6,30.34,South,173,1.0,2.0,74,0.00,,,0.00,WeatherCatV1.02B3,2013-03-07 05:25:00,
2013-03-06 23:30:00,40.3,32.7,30.34,South,175,0.0,2.0,74,0.00,,,0.00,WeatherCatV1.02B3,2013-03-07 05:30:00,
2013-03-06 23:35:00,40.4,32.4,30.35,South,173,0.0,0.0,73,0.00,,,0.00,WeatherCatV1.02B3,2013-03-07 05:35:00,
2013-03-06 23:40:00,40.3,32.3,30.34,South,173,0.0,0.0,73,0.00,,,0.00,WeatherCatV1.02B3,2013-03-07 05:40:00,
2013-03-06 23:45:00,40.2,32.6,30.34,South,173,0.0,0.0,74,0.00,,,0.00,WeatherCatV1.02B3,2013-03-07 05:45:00,
2013-03-06 23:50:00,39.9,32.6,30.34,South,173,1.0,2.0,75,0.00,,,0.00,WeatherCatV1.02B3,2013-03-07 05:50:00,
2013-03-06 23:55:00,39.7,32.4,30.34,SE,143,4.0,4.0,75,0.00,,,0.00,WeatherCatV1.02B3,2013-03-07 05:55:00,